Location: ????????
(48.3550°N, 34.2968°E)
Time: 14:28:36
(UTC+00:00)

Daily predictions for brighter satellites

Satellite Brightness Start Highest point End
(mag) Time Altitude Azimuth Time Altitude Azimuth Time Altitude Azimuth
Cosmos 2297 Rocket 4.1 14:48:31 10° W 14:52:58 23° NW 14:57:28 10° N
Cosmos 1603 3.9 14:48:46 10° NNW 14:54:30 81° WSW 15:00:14 10° SSE
Cosmos 2279 Rocket 4.2 14:51:16 10° N 14:57:24 52° ENE 15:03:28 10° SSE
NOAA 12 4.1 14:52:14 10° SSE 14:57:27 80° ENE 15:02:43 10° NNW
PAYLOAD B 4.4 14:52:22 10° SSE 14:57:52 84° WSW 15:03:26 10° NNW
Cosmos 1538 Rocket 4.4 14:53:45 10° N 14:58:38 40° ENE 15:03:30 10° SE
CREW DRAGON DEMO-1 DEB 3.2 14:56:21 10° WNW 14:59:10 44° N 15:01:58 10° E
ATLAS 5 CENTAUR R/B 1.5 14:56:33 10° SW 15:00:35 86° SE 15:05:10 10° NE
X-37B 3.1 15:00:51 10° S 15:02:14 12° SSE 15:03:38 10° ESE
ADEOS Rocket 3.9 14:56:38 10° N 15:02:28 47° WNW 15:07:50 10° SW
Cosmos 1536 Rocket 4.2 14:59:03 10° SSW 15:03:23 62° WNW 15:07:48 10° N
Cosmos 968 Rocket 4.4 14:59:04 10° SW 15:04:00 48° WNW 15:08:59 10° NNE
COSMO-SKYMED 1 3.7 15:02:24 10° NE 15:05:59 24° E 15:09:32 10° SSE
Envisat 4.2 15:01:48 10° S 15:06:42 48° W 15:11:38 10° NNW
H-2A R/B 2.7 15:04:37 10° S 15:08:39 75° WSW 15:12:52 10° NNW
Lacrosse 5 2.1 15:04:02 10° NW 15:09:01 53° NNE 15:13:58 10° ESE
CZ-2D R/B 4.1 15:07:28 10° SE 15:10:49 29° ENE 15:14:11 10° N
Cosmos 1354 Rocket 4.1 15:05:35 10° SSW 15:10:55 86° WNW 15:16:18 10° NNE
FengYun 1-2 T 4.2 15:05:50 10° SSE 15:11:22 77° ENE 15:17:01 10° NNW
Cosmos 1634 Rocket 4.2 15:06:06 10° N 15:12:22 83° W 15:18:39 10° S
CORIOLIS 4.3 15:15:05 10° SSE 15:20:29 80° WSW 15:25:54 10° NNW
SL-14 R/B 3.5 15:17:14 10° SSW 15:21:05 73° W 15:25:01 10° N
Okean-O 3.6 15:19:11 10° ESE 15:22:51 26° ENE 15:26:32 10° N
Cosmos 2263 Rocket 2.5 15:17:59 10° SW 15:23:40 70° WNW 15:29:20 10° NNE
Okean O Rocket 1.8 15:19:30 10° S 15:23:57 78° WSW 15:28:24 10° NNW
ISS -2.1 15:21:43 10° SSW 15:24:23 22° SE 15:26:26 13° E
Meteor 2-5 Rocket 3.8 15:20:30 10° SSW 15:26:04 81° WNW 15:31:39 10° N
RESURS DK-1 3.8 15:25:28 10° WSW 15:29:17 36° NW 15:33:09 10° NNE
NOAA 11 4.5 15:23:57 10° S 15:29:27 75° WSW 15:34:59 10° NNW
Helios 1A Rocket 4.0 15:28:59 10° ESE 15:32:18 23° ENE 15:35:37 10° N
Cosmos 1455 2.9 15:30:46 10° N 15:34:12 31° ENE 15:37:38 10° SE
Cosmos 1606 Rocket 3.9 15:31:48 10° NNW 15:36:09 70° W 15:40:32 10° S
H-2A R/B 2.4 15:32:33 10° N 15:37:01 70° WNW 15:41:21 10° SSW
ARGOS 4.0 15:33:23 10° ESE 15:37:52 28° ENE 15:42:22 10° N
Aureole 2 Rocket 2.8 15:35:22 10° S 15:38:06 33° ESE 15:39:32 21° ENE
Cosmos 1300 3.9 15:35:21 10° NNW 15:39:01 46° W 15:42:40 10° SSW
YAOGAN 1 3.2 15:35:24 10° SE 15:39:17 34° ENE 15:43:11 10° N
Cosmos 1892 Rocket 3.5 15:35:41 10° S 15:39:58 69° E 15:44:18 10° NNE
SMAP 4.4 15:35:40 10° S 15:40:05 43° W 15:44:32 10° NNW
Cosmos 2228 4.0 15:39:51 10° NNW 15:43:59 51° W 15:48:08 10° S
Cosmos 1689 Rocket 3.8 15:46:02 17° ESE 15:46:02 17° ESE 15:47:14 10° SE
CZ-2C R/B 4.0 15:45:11 18° E 15:45:23 18° E 15:49:04 10° SE
TELKOM 3 3.8 15:44:23 10° SW 15:46:35 37° SSE 15:47:14 30° ESE
ATLAS 2AS CENTAUR R/B 3.9 15:40:00 10° WSW 15:47:28 42° NNW 15:54:43 10° NE
Cosmos 1703 4.4 15:44:32 10° SE 15:47:32 22° E 15:47:32 22° E
ERS-2 2.7 15:45:57 18° NE 15:48:13 35° E 15:51:35 10° SSE
IRS-1C Rocket 4.0 15:43:50 10° SSE 15:49:02 68° ENE 15:54:16 10° N
Cosmos 1812 Rocket 4.4 15:47:46 10° NNE 15:51:34 27° ENE 15:55:18 10° SE
SKYMED 2 3.5 15:49:53 10° NNE 15:54:15 73° ESE 15:58:34 10° S
SJ 16-02 1.6 15:50:34 10° S 15:54:44 44° ESE 15:57:28 20° NE
CZ-4B R/B 1.3 15:52:14 10° NNE 15:55:38 89° WNW 15:58:56 10° SSW
Cosmos 1833 Rocket 3.8 15:51:41 10° N 15:56:05 23° NE 15:57:12 21° ENE
Meteor 1-24 Rocket 4.2 15:51:12 10° SSW 15:56:27 57° WNW 16:01:42 10° N
Nadezhda 4 Rocket 4.0 15:51:35 10° S 15:57:43 63° E 16:03:50 10° NNE
Cosmos 158 Rocket 4.0 15:53:18 10° NNW 15:58:36 62° ENE 16:03:56 10° SE
Cosmos 1844 4.0 15:53:17 10° S 15:58:36 45° ESE 16:02:23 19° NE
Cosmos 2082 Rocket 3.7 15:56:10 10° N 15:59:49 17° NE 16:00:14 17° NE
Cosmos 923 Rocket 4.0 15:55:04 10° NNW 16:00:23 59° ENE 16:05:37 10° SE
CZ-4C R/B 3.7 15:59:03 10° W 16:03:47 28° NNW 16:08:44 12° NNE
H-2A R/B 2.0 16:00:50 10° SSE 16:05:44 59° ENE 16:10:47 10° N
Cosmos 1939 Rocket 4.1 16:03:18 10° S 16:07:16 46° W 16:11:14 10° NNW
Cosmos 1680 Rocket 3.6 16:02:16 10° NNW 16:07:24 52° ENE 16:12:29 10° SE
Cosmos 1898 Rocket 4.3 16:03:21 10° SSE 16:07:48 28° E 16:08:18 28° E
CZ-2C R/B 3.3 16:03:38 10° SSE 16:08:57 82° WSW 16:14:36 10° NNW
Meteor 2-13 Rocket 4.3 16:03:23 10° S 16:09:27 73° E 16:15:36 10° NNE
Cosmos 2058 Rocket 3.6 16:05:18 10° NNW 16:09:46 64° W 16:14:13 10° S
COSMOS 2455 2.9 16:04:17 10° SW 16:10:19 84° NW 16:15:15 16° NNE
USA 234 3.7 16:08:28 24° ENE 16:12:01 46° NNE 16:18:12 10° WNW
PSLV R/B 3.9 16:12:48 18° NNE 16:15:51 64° ESE 16:20:01 10° S
MOS 1 Rocket 3.0 16:12:51 10° NNE 16:17:12 87° WNW 16:21:29 10° SSW
Cosmos 1844 Rocket 2.6 16:11:55 10° SSW 16:17:34 75° ESE 16:21:34 20° NNE
SJ-11-01 4.2 16:13:15 10° SSE 16:17:55 68° ENE 16:22:34 10° N
Cosmos 1818 3.5 16:15:25 10° SSW 16:20:50 76° SE 16:23:39 29° NE
CZ-4 R/B 1.4 16:17:20 10° S 16:21:27 81° WSW 16:25:30 10° NNW
Iridium 4 Rocket 3.7 16:17:36 10° N 16:23:13 54° E 16:28:24 10° SSE
Okean 1-7 Rocket 4.1 16:20:55 10° SSW 16:25:25 64° WNW 16:30:00 10° N
Cosmos 2278 Rocket 4.3 16:25:22 10° SE 16:25:33 11° SE 16:25:33 11° SE
Meteor 1-21 Rocket 4.1 16:24:54 10° S 16:30:25 84° E 16:36:01 10° NNE
Cosmos 1553 Rocket 4.3 16:25:37 10° N 16:31:40 41° ENE 16:33:27 34° ESE
Cosmos 1626 Rocket 3.4 16:27:35 10° S 16:31:58 83° E 16:34:53 21° NNE
Cosmos 2344 4.2 16:23:35 10° NW 16:32:27 64° NE 16:40:52 22° ESE
SAR-Lupe-4 3.5 16:31:53 54° N 16:32:38 86° WNW 16:36:12 10° SSW
CREW DRAGON DEMO-1 DEB 3.7 16:31:35 10° WNW 16:33:49 46° W 16:33:49 46° W
Cosmos 2026 Rocket 3.9 16:28:38 10° S 16:34:34 57° E 16:40:38 10° NNE
X-37B 2.2 16:35:20 10° SW 16:37:29 29° SSW 16:37:29 29° SSW
Cosmos 44 3.5 16:34:32 10° SSW 16:38:59 48° SE 16:38:59 48° SE
CSL-04 Rocket 3.5 16:35:10 10° SSE 16:40:34 80° ENE 16:46:05 10° NNW
Cosmos 1937 Rocket 4.3 16:36:35 10° S 16:40:03 33° SE 16:40:03 33° SE
COSMO-SKYMED 1 3.9 16:38:13 10° N 16:42:15 38° WNW 16:46:17 10° SW
SAR-Lupe-1 4.4 16:42:49 56° NNW 16:43:19 65° WNW 16:46:51 10° SSW
Cosmos 2112 Rocket 3.9 16:39:57 10° NNW 16:45:14 87° ENE 16:48:18 25° SSE
ATLAS 5 CENTAUR R/B 3.5 16:42:27 10° WNW 16:45:52 22° NNW 16:47:39 18° N
Lacrosse 5 2.9 16:47:10 10° WNW 16:51:57 43° SW 16:54:43 22° SSE
Meteor 2-8 Rocket 4.4 16:49:10 10° N 16:55:17 85° W 17:01:24 10° S
Meteor 2-15 4.3 16:49:27 10° N 16:55:38 71° ENE 17:01:29 11° SSE
SL-08 RB Rocket 3.9 16:58:30 61° N 16:58:30 61° N 17:02:15 10° NNW
Okean-O 4.0 16:55:01 10° SSW 16:59:10 39° W 17:03:21 10° NNW
NOSS 3-1 (C) 4.0 16:52:33 10° NW 16:59:59 88° NE 17:04:28 32° SE
ISS -1.9 16:57:29 10° WSW 16:59:24 31° WSW 16:59:24 31° WSW
USA 281 4.2 17:05:56 29° NNE 17:05:56 29° NNE 17:10:06 10° NNW
Helios 1A Rocket 4.3 17:03:22 10° SSW 17:07:15 39° W 17:11:10 10° NNW
Cosmos 1602 Rocket 4.3 17:08:18 10° SSW 17:12:32 51° WNW 17:12:55 49° WNW
USA 229 DEB 3.8 17:10:10 10° NW 17:17:29 86° NE 17:19:08 59° SE
USA 229 3.8 17:10:17 10° NW 17:17:35 85° NE 17:19:11 60° SE
Cosmos 990 Rocket 4.1 17:12:35 10° SSW 17:17:47 69° WNW 17:18:01 68° NW
ARGOS 3.9 17:12:41 10° S 17:17:52 50° W 17:23:07 10° NNW
USA 267 3.6 17:19:54 46° SSE 17:19:54 46° SSE 17:25:18 10° SSW
COSMOS 2406 3.3 17:17:07 10° NNW 17:22:13 69° NNW 17:22:13 69° NNW
Meteor 2-15 Rocket 4.3 17:19:05 10° N 17:25:17 89° WSW 17:25:19 88° SW
CZ-2C R/B 2.8 17:26:40 74° WSW 17:26:40 74° WSW 17:31:52 10° SSW
NOSS 3-1 (A) 3.9 17:25:39 10° NW 17:33:06 89° NE 17:34:20 69° SE
SJ 16-02 3.4 17:29:58 10° WSW 17:33:32 23° NW 17:34:30 22° NW
ATLAS 2AS CENTAUR R/B 4.3 17:34:14 10° WNW 17:40:33 26° N 17:42:09 24° NNE
Cosmos 1833 Rocket 3.4 17:35:04 10° NNW 17:38:57 46° NW 17:38:57 46° NW
Cosmos 2082 Rocket 3.6 17:39:21 10° NNW 17:42:06 29° NNW 17:42:06 29° NNW
H-2A R/B 4.4 17:41:53 10° SW 17:45:35 21° W 17:49:22 10° NW
CZ-4C R/B 4.3 17:49:48 10° NW 17:53:55 21° N 17:53:55 21° N
USA 234 3.5 17:55:48 63° NW 17:55:48 63° NW 18:01:13 10° NW
